Weather History for KDRO - August, 2013

Change the Weather History Date:

Tuesday, August 6, 2013

  Actual Average Record
Temperature  
Mean Temperature 70 °F 69 °F  
Max Temperature 81 °F 84 °F 97 °F (1981)
Min Temperature 58 °F 54 °F 42 °F (1976)
Degree Days  
Heating Degree Days 0 0  
Month to date heating degree days 0 0  
Since 1 June heating degree days 40 125  
Since 1 July heating degree days 0 10  
Cooling Degree Days 5 4  
Month to date cooling degree days 26 25  
Year to date cooling degree days 272 176  
Since 1 June cooling degree days 272 175  
Growing Degree Days 18 (Base 50)    
Moisture  
Dew Point 50 °F    
Average Humidity 64    
Maximum Humidity 93    
Minimum Humidity 35    
Precipitation  
Precipitation 0.13 in 0.08 in 0.89 in (1988)
Month to date precipitation 0.80 0.51  
Year to date precipitation 6.64 8.30  
Sea Level Pressure  
Sea Level Pressure 30.02 in    
Wind  
Wind Speed 8 mph (WNW)    
Max Wind Speed 22 mph    
Max Gust Speed 31 mph    
Visibility 10 miles    
Events Rain , Thunderstorm    
T = Trace of Precipitation, MM = Missing Value Source: NWS Daily Summary

Daily Weather History Graph

Daily Weather History Graph

Search for Another Location

Airport or City:

Trip Planner

Search our weather history database for the weather conditions in past years. The results will help you decide how hot, cold, wet, or windy it might be!

Date:

Astronomy

Aug. 06, 2013 Rise Set
Actual Time 6:20 AM MDT 8:12 PM MDT
Civil Twilight 5:51 AM MDT 8:41 PM MDT
Nautical Twilight 5:17 AM MDT 9:15 PM MDT
Astronomical Twilight 4:40 AM MDT 9:52 PM MDT
Moon 6:12 AM MDT (8/6) 7:51 PM MDT (8/6)
Length of Visible Light 14h 49m
Length of Day
13h 52m
Waning Crescent, 0% of the Moon is Illuminated
Aug 6
Waning Crescent
Aug 6
New
Aug 14
First Quarter
Aug 20
Full
Aug 28
Last Quarter

Hourly Weather History & Observations

Time (MDT) Temp. Dew Point Humidity Pressure Visibility Wind Dir Wind Speed Gust Speed Precip Events Conditions
12:53 AM 64.9 °F 48.9 °F 56% 29.95 in 10.0 mi Calm Calm - N/A   Partly Cloudy
1:53 AM 64.0 °F 48.0 °F 56% 29.96 in 10.0 mi SW 3.5 mph - N/A   Partly Cloudy
2:53 AM 62.1 °F 51.1 °F 67% 29.97 in 10.0 mi West 8.1 mph - N/A   Clear
3:53 AM 60.1 °F 50.0 °F 69% 29.98 in 10.0 mi North 3.5 mph - N/A   Clear
4:53 AM 60.1 °F 51.1 °F 72% 30.00 in 10.0 mi ESE 4.6 mph - N/A   Mostly Cloudy
5:53 AM 59.0 °F 51.1 °F 75% 30.01 in 10.0 mi ENE 5.8 mph - N/A   Mostly Cloudy
6:53 AM 59.0 °F 51.1 °F 75% 30.01 in 10.0 mi North 9.2 mph - N/A   Clear
7:53 AM 60.1 °F 50.0 °F 69% 30.00 in 10.0 mi NNW 5.8 mph - N/A   Clear
8:53 AM 63.0 °F 51.1 °F 65% 30.02 in 10.0 mi SW 4.6 mph - N/A   Clear
9:53 AM 64.9 °F 50.0 °F 58% 30.01 in 10.0 mi SSW 4.6 mph - N/A   Overcast
10:53 AM 68.0 °F 51.1 °F 55% 30.01 in 10.0 mi WSW 5.8 mph - N/A   Mostly Cloudy
11:53 AM 71.1 °F 48.9 °F 45% 30.00 in 10.0 mi SSW 6.9 mph - N/A   Mostly Cloudy
12:53 PM 75.9 °F 48.9 °F 38% 29.96 in 10.0 mi Variable 5.8 mph - N/A   Clear
1:53 PM 79.0 °F 48.9 °F 35% 29.92 in 10.0 mi Variable 6.9 mph - N/A   Mostly Cloudy
2:53 PM 78.1 °F 48.9 °F 36% 29.92 in 10.0 mi NW 13.8 mph 21.9 mph N/A Thunderstorm Mostly Cloudy
3:02 PM 77.0 °F 48.2 °F 36% 30.19 in 10.0 mi WNW 16.1 mph - N/A   Mostly Cloudy
3:53 PM 77.0 °F 46.0 °F 33% 29.92 in 10.0 mi North 13.8 mph 21.9 mph N/A   Scattered Clouds
4:45 PM 75.2 °F 46.4 °F 36% 30.17 in 10.0 mi WNW 4.6 mph - N/A Thunderstorm Mostly Cloudy
4:53 PM 75.9 °F 46.0 °F 35% 29.92 in 10.0 mi WNW 6.9 mph - N/A Thunderstorm Overcast
5:05 PM 75.2 °F 46.4 °F 36% 30.18 in 8.0 mi West 18.4 mph 27.6 mph N/A   Overcast
5:53 PM 73.9 °F 50.0 °F 43% 29.92 in 10.0 mi NW 4.6 mph - 0.01 in   Partly Cloudy
6:24 PM 73.4 °F 48.2 °F 41% 30.16 in 10.0 mi NNW 13.8 mph - N/A Thunderstorm Scattered Clouds
6:39 PM 71.6 °F 46.4 °F 41% 30.17 in 10.0 mi NNW 13.8 mph - N/A   Mostly Cloudy
6:53 PM 72.0 °F 46.0 °F 40% 29.93 in 10.0 mi West 15.0 mph - 0.00 in Rain Light Rain
6:57 PM 69.8 °F 50.0 °F 49% 30.18 in 10.0 mi WSW 19.6 mph - 0.00 in Rain , Thunderstorm Light Rain
7:17 PM 62.6 °F 55.4 °F 77% 30.18 in 9.0 mi West 13.8 mph - 0.01 in Rain Light Rain
7:53 PM 64.0 °F 55.0 °F 73% 29.98 in 7.0 mi SSW 10.4 mph - 0.03 in Rain Light Rain
8:53 PM 60.1 °F 57.0 °F 90% 30.02 in 10.0 mi SSW 8.1 mph - 0.07 in Rain Light Rain
9:53 PM 57.9 °F 55.9 °F 93% 30.06 in 10.0 mi NNE 3.5 mph - 0.02 in Rain Light Rain
10:53 PM 59.0 °F 55.9 °F 90% 30.03 in 10.0 mi NNE 4.6 mph - 0.00 in   Overcast
11:53 PM 59.0 °F 57.0 °F 93% 30.02 in 10.0 mi South 3.5 mph - N/A   Clear